Location: Recife
(8.0585°S, 34.8848°W)
Time: 09:54:04
(UTC-03:00)

Altair - Pass Details

Date: 16 April 2026
Orbit: 1501 x 1682 km, 47.2° (Epoch: 11 May)

Event Time Altitude Azimuth Distance (km) Brightness Sun altitude
Rises 20:22:40 0° 337° (NNW) 4,665 10.3 -46.4°
Reaches altitude 10° 20:25:58 10° 344° (NNW) 3,668 9.6 -47.2°
Enters shadow 20:27:18 15° 348° (NNW) 3,287 9.3 -47.5°
